Tracking 22440 objects as of 27-Feb-2021
HD Live streaming from Space Station
objects crossing your sky now

COSMOS 249 DEB

Track COSMOS 249 DEB now!
10-day predictions


NORAD ID: 19362
Int'l Code: 1968-091DJ
Perigee: 491.6 km
Apogee: 1,324.6 km
Inclination: 62.8 °
Period: 103.0 minutes
Semi major axis: 7279 km
RCS: 0.01 m2 (small)
Launch date: October 20, 1968
Source: Commonwealth of Independent States (former USSR) (CIS)
Launch site: TYURATAM MISSILE AND SPACE COMPLEX (TTMTR)

Note: This is SATELLITE DEBRIS
aabbcc
Your satellite tracking list
Your tracking list is empty




NASA's NSSDC Master Catalog

Two Line Element Set (TLE):
1 19362U 68091DJ  21057.76512186  .00002403  00000-0  42745-3 0  9990
2 19362  62.7788 245.9925 0572177 131.3320 233.8446 13.97936576647316
Source of the keplerian elements: AFSPC